Wind_Speed
13 13 13 13 14 15 15 15 16 16 17 17 17 17 17 17 18 18 18 18 18 18 18 18 17 18 18 17 18 18 18 18 18 18 18 18 18 17 16 16 15 15 19 20 17 12 9 5 3 5 9 11
12 12 13 13 15 16 16 15 16 17 18 18 17 18 19 19 18 19 19 20 20 18 18 18 18 18 18 18 18 19 19 19 19 19 19 19 19 18 17 17 16 17 20 19 18 15 11 7 3 3 5 9
13 12 13 14 15 16 17 17 16 18 18 19 19 18 18 19 19 19 20 21 20 19 18 18 19 18 18 18 18 19 19 19 19 20 19 20 19 18 18 18 17 19 21 20 19 17 15 11 8 7 5 7
13 15 16 17 18 19 19 19 18 18 19 19 20 20 19 18 19 21 21 22 22 21 20 19 20 20 19 19 19 19 20 20 20 21 20 20 20 19 18 18 19 22 22 21 21 18 17 14 11 9 8 8
13 11 14 17 20 20 20 21 21 20 19 20 21 22 21 18 19 22 23 24 25 24 22 21 22 22 20 20 20 20 21 21 21 22 21 20 20 19 18 18 21 23 21 21 22 20 17 14 13 12 11 10
21 19 15 14 16 19 21 21 22 22 22 22 23 23 24 21 19 20 23 24 25 26 24 24 23 23 23 22 21 21 22 22 22 22 22 21 20 19 19 20 23 23 21 20 20 19 16 14 13 12 12 11
22 21 21 19 18 15 18 22 22 23 23 24 24 24 25 25 22 20 21 24 26 26 26 27 26 24 24 24 23 23 24 23 24 24 23 22 21 20 21 22 23 23 20 19 20 17 15 14 14 12 11 11
23 23 21 19 20 19 16 17 21 22 23 24 26 26 27 27 25 22 21 23 25 26 27 28 28 26 25 25 25 25 25 25 26 25 24 24 23 23 24 22 23 24 23 21 21 19 17 16 15 13 11 11
24 23 22 20 20 20 19 17 18 20 23 25 26 27 28 29 28 25 23 24 26 27 28 29 30 29 27 28 29 28 26 26 28 27 26 26 26 27 27 24 24 26 26 25 23 21 19 17 16 15 12 11
24 23 22 23 22 21 20 18 18 17 18 23 27 29 29 30 31 28 26 25 27 29 30 31 31 32 31 30 31 31 29 28 29 30 28 28 29 29 29 28 28 27 27 28 25 23 21 20 19 17 14 12
25 24 23 22 21 21 21 21 19 17 17 18 22 27 28 29 31 31 30 28 29 30 32 33 33 33 34 33 33 31 32 31 30 31 31 30 31 31 31 32 31 30 30 29 28 26 24 24 22 21 18 14
26 25 23 22 21 21 21 22 22 20 18 16 17 20 25 27 28 30 31 31 32 32 33 34 35 36 36 36 35 33 33 34 31 32 34 32 33 33 33 34 34 33 32 31 30 29 27 26 25 24 21 16
25 25 24 22 21 21 21 22 23 23 22 19 17 17 19 22 25 28 29 30 32 34 36 37 37 38 39 38 38 36 35 36 34 33 35 34 35 36 35 36 36 35 34 33 32 30 29 29 27 26 23 18
23 24 24 23 22 20 21 22 23 23 24 23 22 19 18 18 20 23 26 28 28 27 31 37 39 40 40 40 40 40 40 39 37 35 36 36 36 38 39 39 39 38 36 35 34 33 32 31 29 27 23 20
23 23 23 23 22 21 20 21 22 22 23 23 24 23 22 19 18 20 21 24 28 26 25 30 35 39 42 44 43 43 42 41 40 38 38 39 38 38 40 40 40 39 38 37 36 35 34 32 31 29 24 21
23 22 23 23 23 22 21 20 21 21 22 22 23 24 24 23 21 19 18 19 24 29 30 29 29 33 38 44 46 45 43 42 42 40 38 40 40 39 39 39 39 39 39 38 37 36 36 35 34 31 27 24
22 21 23 23 24 23 22 20 21 22 21 21 22 24 24 25 24 21 19 17 19 23 29 31 30 30 32 37 43 46 44 42 43 43 40 39 40 40 39 39 38 38 38 39 38 37 36 35 35 33 30 28
23 21 22 23 23 24 23 22 22 22 22 21 21 23 25 25 26 24 22 20 19 19 21 26 28 29 31 33 36 41 45 43 43 45 43 39 40 41 41 41 40 40 40 39 39 38 37 36 35 34 32 30
24 22 22 23 23 23 22 22 23 24 23 23 22 22 23 24 26 26 25 23 21 19 18 19 24 28 31 33 34 37 42 44 44 45 45 42 40 40 41 42 42 42 41 41 40 39 38 37 36 35 34 33
23 21 21 22 23 22 21 22 24 24 23 25 25 25 23 22 24 25 26 25 23 21 18 16 19 25 29 31 34 36 39 42 44 45 45 44 42 41 40 40 41 43 43 42 42 40 39 38 37 36 35 35
21 21 22 23 23 21 21 23 24 24 23 25 25 26 26 24 24 25 26 26 24 22 20 17 17 19 23 26 29 33 38 41 43 44 44 44 44 44 42 40 40 41 42 43 42 41 40 39 38 38 38 37
21 21 23 23 23 23 23 24 24 24 25 27 27 26 26 26 26 27 27 27 26 24 22 20 19 17 17 20 23 28 35 41 42 43 44 44 45 45 44 42 41 40 41 42 41 41 41 41 40 39 39 38
22 22 23 24 24 24 24 23 22 23 24 27 28 27 25 26 27 28 28 28 28 28 27 24 22 20 17 17 20 24 30 38 40 40 42 43 43 44 45 45 45 43 41 39 39 40 39 40 41 40 38 37
27 25 25 25 24 24 24 23 22 23 24 24 25 26 27 28 29 29 29 30 30 31 31 29 26 24 20 16 16 20 26 34 38 38 39 41 42 42 42 43 45 43 41 36 32 32 34 35 36 37 36 36
29 27 27 26 26 27 27 25 24 24 25 25 25 24 25 28 31 32 31 31 31 32 32 31 30 28 25 20 16 16 19 26 34 37 36 36 39 42 40 39 41 42 38 30 22 20 24 28 30 32 34 35
30 29 30 30 30 28 27 25 24 25 25 27 26 22 22 26 29 31 31 29 30 32 32 31 30 29 29 26 22 19 17 19 26 33 34 31 29 34 39 38 39 42 35 26 21 15 11 14 21 26 31 34
31 30 28 27 26 25 25 24 26 27 27 25 24 22 22 23 26 28 28 27 27 29 30 30 30 29 29 28 27 25 22 19 21 26 31 31 29 27 30 31 34 42 41 32 24 14 7 7 9 13 21 30
30 27 25 25 26 26 27 28 28 28 27 24 23 24 23 22 24 26 27 27 27 27 27 28 28 29 30 30 27 25 26 24 22 23 27 30 32 29 25 24 26 37 45 38 26 13 3 3 4 6 12 19
27 27 27 27 28 28 27 27 27 26 26 25 24 25 26 24 23 23 25 27 28 28 28 28 28 29 31 32 30 26 25 27 25 23 24 27 31 31 28 25 23 30 39 40 37 26 10 5 5 7 7 9
28 27 27 25 25 26 24 22 23 23 24 26 26 27 27 25 24 23 23 25 28 29 30 30 30 29 29 31 31 29 27 26 27 26 24 24 28 31 31 30 23 23 32 37 40 38 28 21 15 8 9 8
30 29 28 27 26 27 24 21 22 24 25 26 27 27 27 25 24 24 24 25 27 28 29 30 30 29 29 29 29 30 28 27 27 29 28 25 26 28 30 31 26 24 29 31 34 37 37 32 20 12 15 11
Wind_Direction
235 232 233 235 236 237 238 236 233 230 229 229 226 224 222 220 215 213 214 214 214 213 211 211 214 213 213 213 213 214 210 210 208 205 202 198 201 201 208 203 195 191 175 187 208 202 202 210 168 150 151 144
240 236 237 241 244 241 243 244 240 235 233 234 232 227 225 223 217 214 214 214 213 212 214 215 216 215 216 215 215 215 212 212 208 204 202 199 201 201 206 204 200 193 176 191 211 206 205 205 214 219 175 154
253 250 250 250 253 247 243 246 245 241 237 235 235 232 230 227 223 218 215 213 211 212 216 218 219 220 218 216 216 217 214 214 212 206 204 202 202 201 203 207 204 187 178 197 212 210 211 215 233 240 207 163
274 263 261 258 257 253 247 244 244 246 242 238 236 237 237 233 228 224 221 218 216 217 218 219 221 220 220 220 218 218 217 216 215 211 206 203 204 203 204 209 199 182 181 202 213 211 212 216 224 229 215 176
346 312 282 269 260 256 252 246 242 243 242 240 239 240 241 240 235 228 225 223 222 221 220 221 219 216 217 223 223 218 218 217 215 214 208 206 207 204 205 204 194 186 184 197 209 209 208 214 218 221 214 187
7 4 349 323 291 268 258 251 243 241 240 240 241 240 241 244 244 234 228 223 220 219 218 218 218 219 218 221 224 219 220 219 216 215 211 208 207 203 205 203 195 189 181 188 206 206 204 212 213 215 213 194
360 359 1 358 343 313 277 261 252 245 241 241 240 239 240 244 248 243 232 225 220 216 214 216 218 222 219 219 221 219 221 220 217 216 213 210 206 203 205 204 198 188 181 191 207 207 205 213 213 212 210 196
358 354 352 352 354 351 331 295 275 261 250 245 243 240 239 243 248 248 239 229 225 220 216 216 217 219 220 220 220 219 220 220 219 216 213 210 204 204 206 204 199 189 187 200 209 210 213 222 222 217 211 197
360 356 351 347 345 348 353 341 315 290 268 256 248 243 240 240 244 249 247 237 229 225 221 219 218 218 221 221 219 220 221 220 219 217 213 209 203 205 208 207 204 194 192 202 209 213 218 228 228 222 217 205
3 359 354 348 343 338 340 344 343 331 302 277 258 247 242 239 240 244 248 244 235 229 226 224 221 221 222 220 219 220 224 223 219 218 216 209 203 206 209 211 212 207 203 206 212 218 223 232 232 231 229 215
6 3 359 351 343 336 331 330 334 340 335 312 281 262 251 242 239 240 242 244 239 231 227 226 225 224 222 220 220 220 224 226 221 218 217 211 208 209 211 212 214 215 213 214 218 222 226 232 234 237 238 224
4 1 358 353 348 341 333 326 323 324 330 330 315 295 275 257 245 241 240 242 238 231 227 226 227 226 224 223 223 220 222 227 224 219 217 215 212 211 212 213 214 216 217 219 221 223 226 231 235 238 237 228
358 358 355 352 349 344 338 330 321 315 314 315 320 321 304 280 261 249 244 243 240 234 228 226 227 226 224 225 224 220 220 225 226 220 215 215 214 212 212 213 215 217 218 220 221 223 227 231 234 233 231 226
350 350 349 349 345 338 335 332 326 316 308 304 304 309 314 308 290 271 258 249 244 241 233 228 227 226 225 225 223 219 218 221 225 222 216 215 214 213 213 214 216 217 218 220 222 224 227 231 230 226 226 226
343 341 339 340 342 336 329 326 325 321 314 305 298 296 299 305 308 299 286 268 256 254 247 236 229 225 224 223 222 220 218 219 222 223 220 217 216 213 214 215 216 218 219 220 222 224 226 229 226 222 224 225
337 335 332 328 331 333 329 322 317 315 316 313 304 296 291 292 299 303 304 295 277 267 258 247 236 229 223 220 220 220 219 218 218 222 222 220 218 216 215 216 217 218 220 222 222 223 225 226 224 223 223 223
329 325 326 322 319 323 324 320 314 309 308 312 311 304 295 289 291 295 298 301 294 282 268 256 246 238 229 222 220 219 219 217 216 219 221 221 219 216 216 217 217 218 220 223 224 224 225 225 223 222 222 222
323 314 317 315 309 312 316 314 311 308 303 304 309 309 302 293 289 291 293 295 294 292 282 269 257 247 237 229 224 219 217 217 215 215 217 219 219 217 216 217 218 218 218 221 223 224 224 224 223 222 221 221
316 304 307 310 303 303 309 308 306 306 303 302 305 304 300 297 294 292 293 295 294 292 290 281 265 252 243 236 230 223 219 217 214 214 215 216 217 217 217 217 217 218 218 219 220 222 223 223 222 222 221 221
310 298 299 304 299 297 302 304 304 305 303 303 305 304 299 296 297 298 297 296 295 292 289 284 267 254 247 240 233 228 223 218 214 212 213 214 215 215 216 215 215 216 217 218 219 220 221 221 221 220 220 221
310 300 298 299 294 291 297 300 300 301 301 302 305 305 302 298 298 300 300 299 298 295 288 283 278 265 254 244 237 232 226 220 216 213 211 212 213 214 215 215 214 213 214 216 217 218 219 220 220 220 220 223
313 308 305 299 290 289 294 296 296 298 299 300 302 304 304 304 304 301 299 299 300 301 294 285 281 278 268 254 244 236 229 224 219 215 212 211 211 212 212 213 213 212 213 214 216 217 219 219 220 222 223 225
316 314 310 301 293 291 291 288 289 296 300 300 301 301 303 306 308 305 301 300 300 302 301 295 287 282 279 268 254 241 232 225 220 216 213 211 210 209 210 213 214 214 213 212 215 216 218 220 221 223 225 225
321 314 309 303 298 294 289 285 284 288 292 297 300 300 300 301 303 305 304 302 301 302 302 299 294 287 282 277 266 249 235 228 223 219 215 213 210 207 208 211 213 214 212 209 213 216 217 220 222 223 224 225
323 313 306 300 294 292 290 289 288 284 285 287 290 295 299 301 302 301 301 301 300 300 300 299 296 291 285 281 277 263 245 234 229 225 221 217 213 208 205 206 209 210 206 200 204 213 217 219 221 223 224 226
319 312 306 298 290 290 292 297 299 295 292 287 282 284 293 302 306 303 301 302 301 295 293 296 298 296 291 286 282 276 263 245 233 229 228 227 223 214 208 206 206 203 197 194 198 198 199 214 221 223 225 227
317 311 310 304 298 300 303 307 310 307 304 292 276 276 285 295 303 304 302 304 304 297 292 293 295 299 299 293 288 282 276 263 242 231 230 231 232 226 217 213 206 199 198 196 192 181 176 202 212 222 227 227
319 317 320 319 315 314 311 310 309 308 307 297 281 278 279 281 293 300 298 298 301 301 301 298 296 300 301 298 293 286 280 274 264 244 232 229 230 231 225 221 211 203 203 198 184 171 162 157 166 215 224 221
321 321 321 321 320 315 311 309 307 303 303 301 295 290 284 275 277 289 292 292 295 298 300 299 298 300 301 298 294 290 284 276 272 262 244 232 229 228 225 224 218 208 206 203 197 192 179 142 182 227 199 187
325 324 320 320 319 314 310 307 304 303 302 301 299 297 294 282 271 273 280 286 291 292 293 294 293 295 298 299 294 290 289 279 271 267 258 244 234 230 226 224 224 215 209 210 209 205 203 203 208 204 158 145
329 327 323 320 316 311 309 307 306 306 305 303 302 299 297 290 279 271 269 276 282 283 285 287 288 289 291 295 295 291 288 284 276 268 263 256 246 239 231 224 224 220 212 212 215 215 216 217 219 200 180 178
Height
798 799 800 800 802 802 803 803 804 804 804 804 805 805 806 807 808 809 810 811 812 813 814 814 815 816 817 818 819 820 820 821 822 823 824 825 827 829 830 831 833 834 833 832 834 837 838 838 839 839 839 839
798 799 799 800 801 802 803 803 803 804 804 804 804 805 805 806 807 807 809 809 811 812 813 814 815 816 816 817 818 819 819 820 821 822 823 824 826 827 829 830 831 833 832 831 833 835 837 837 838 839 839 840
798 798 799 800 800 801 802 802 803 803 803 804 804 804 805 805 805 806 807 808 809 810 812 813 814 815 816 817 818 818 819 819 820 821 822 823 824 826 827 829 829 830 829 830 832 834 835 836 837 838 839 840
798 799 799 799 800 800 800 801 801 802 802 803 803 803 804 804 804 805 805 806 807 808 810 811 813 814 815 816 817 817 818 819 819 820 821 822 823 824 826 827 827 827 827 828 830 832 833 834 835 836 838 839
798 798 799 798 799 799 799 799 800 801 801 802 802 803 803 803 803 803 804 804 805 807 808 810 810 812 814 815 816 817 817 818 819 819 820 821 822 824 825 826 825 826 826 827 828 830 832 833 834 835 836 837
798 798 798 798 798 798 798 798 798 798 799 800 801 801 801 802 802 802 802 803 803 804 806 808 809 810 812 813 814 816 816 817 818 818 819 820 821 823 824 824 824 825 826 826 826 828 830 831 832 834 835 836
799 798 798 798 798 798 798 797 797 797 798 798 799 800 800 800 801 801 801 801 802 802 804 805 806 808 810 811 812 813 814 815 816 817 818 819 820 822 822 822 822 824 824 824 825 827 829 830 831 833 834 835
799 799 798 798 798 798 798 797 796 796 796 797 797 798 798 799 799 799 800 800 801 801 802 803 804 806 807 809 811 811 812 813 814 815 816 817 819 819 819 819 820 822 822 822 823 825 827 829 830 832 833 834
801 800 799 798 798 798 798 798 797 796 796 796 796 796 796 797 797 798 798 799 799 799 800 801 802 803 804 806 808 809 810 811 812 812 814 815 816 816 816 817 818 819 820 820 821 823 825 827 828 830 832 833
804 802 800 799 799 798 798 798 797 796 795 794 794 794 794 795 795 795 796 797 797 797 798 798 799 800 801 803 805 807 808 808 810 810 811 812 812 812 813 814 815 816 817 818 819 821 823 825 826 828 830 831
807 805 803 802 800 799 798 797 797 796 795 794 794 792 792 792 793 793 794 794 794 795 795 796 797 798 799 799 801 804 806 806 807 808 809 810 810 810 811 812 812 813 815 816 817 819 821 823 824 826 827 828
809 807 805 804 802 800 799 797 796 795 795 794 793 792 791 791 791 791 791 792 792 792 793 793 793 795 796 797 798 800 803 804 805 806 807 807 808 808 809 810 810 811 812 813 814 816 818 820 822 824 825 826
810 809 807 805 804 802 800 798 796 795 794 793 792 792 791 790 790 790 789 789 789 789 789 789 790 791 792 793 795 797 799 801 802 803 804 805 806 806 807 808 808 809 810 811 812 813 816 818 820 821 823 824
811 810 808 807 805 803 801 799 797 795 793 792 791 791 790 789 789 788 788 787 787 788 787 786 786 786 787 789 790 792 794 797 799 800 801 802 803 804 805 805 806 807 808 809 810 811 813 815 817 819 820 821
811 810 809 807 806 804 802 800 798 796 793 791 789 788 788 788 787 787 786 785 785 785 785 785 785 783 783 784 785 787 789 792 795 797 798 799 800 801 802 803 804 805 806 807 808 809 810 812 814 816 818 819
811 810 809 807 806 804 802 800 798 796 794 791 789 787 786 785 785 785 784 783 783 782 782 783 783 782 781 780 781 783 784 787 790 793 796 797 798 800 801 802 803 804 805 805 806 807 808 809 811 813 815 817
810 809 808 807 805 804 802 800 798 796 794 792 789 787 784 783 782 783 782 782 781 780 779 779 780 780 780 779 779 779 780 783 785 788 791 795 796 797 799 799 801 802 803 803 804 805 806 807 808 810 811 813
809 808 807 806 804 803 801 799 798 796 794 792 789 787 784 782 780 779 780 779 779 778 777 776 776 776 777 778 778 777 778 779 781 783 786 790 793 794 795 796 797 799 800 801 802 803 804 805 806 807 809 810
806 805 805 804 803 802 800 798 797 795 793 791 789 786 784 781 779 778 777 776 776 776 775 774 773 773 774 775 776 777 776 775 776 779 781 784 788 791 792 793 794 795 796 798 799 801 802 803 805 806 807 808
804 803 803 802 802 800 799 797 795 793 791 789 787 785 783 781 779 777 775 774 773 773 773 772 772 772 772 772 773 774 774 774 773 774 776 778 782 786 789 790 791 792 793 795 796 798 800 801 802 804 805 806
801 800 801 801 800 799 798 797 794 792 790 788 786 784 781 780 778 776 774 773 771 770 770 770 770 770 770 770 770 771 772 772 771 772 773 774 776 780 784 787 789 790 791 792 793 795 796 798 800 801 802 803
799 798 799 799 798 797 796 795 793 792 789 787 784 782 780 778 777 775 773 771 770 769 768 768 767 768 768 767 767 767 768 769 769 769 769 770 771 774 778 781 785 787 788 790 791 792 793 795 797 798 800 801
797 796 797 797 796 795 794 793 791 790 788 786 784 781 778 776 775 774 772 770 769 767 766 765 765 765 766 765 765 764 765 766 766 766 766 766 767 770 772 775 779 782 785 788 788 789 791 792 794 795 797 799
794 794 794 794 793 792 791 789 788 787 785 784 782 780 778 775 773 772 770 769 767 766 765 764 763 763 763 764 763 762 761 762 763 764 764 763 764 766 769 771 775 778 782 786 788 789 790 792 793 794 795 797
793 793 792 791 790 788 787 786 784 783 782 781 779 778 776 774 772 770 768 767 766 765 763 762 761 761 761 761 762 761 760 759 760 762 763 763 762 762 764 767 770 774 780 784 787 789 790 791 792 793 794 794
793 792 791 789 786 785 784 783 781 780 778 777 776 775 774 772 770 768 767 766 764 763 762 761 759 758 758 759 759 760 759 759 758 758 761 763 762 761 761 762 764 768 774 779 782 785 789 791 792 792 793 792
792 790 789 787 785 783 782 780 779 777 776 775 773 772 771 770 768 767 765 764 763 762 761 759 758 756 756 756 756 757 757 757 756 755 757 760 762 762 761 761 761 762 765 770 776 783 787 787 789 791 791 788
791 789 787 786 784 782 779 777 776 774 773 772 771 770 769 767 766 765 763 762 762 760 759 758 756 755 754 753 754 754 754 754 755 754 754 755 758 761 761 761 760 760 761 764 769 777 781 784 787 786 781 781
790 788 786 784 782 780 777 775 773 772 770 769 768 767 765 764 763 762 761 760 760 758 757 756 755 754 752 751 751 751 751 751 752 753 752 752 754 756 758 759 759 759 760 761 761 764 770 777 780 775 772 777
789 787 785 783 781 779 775 772 771 769 768 766 765 764 762 761 760 759 758 757 757 756 755 755 754 753 751 750 749 748 748 748 748 749 750 750 751 752 754 756 757 757 758 759 759 758 759 761 764 765 769 775
788 786 784 782 780 778 774 771 768 767 766 764 763 761 760 758 757 756 755 754 754 754 753 753 752 751 750 749 747 747 746 745 745 746 747 749 749 749 751 752 753 754 756 757 757 757 757 756 757 759 763 766